Glacier Park International Airport Kalispell US
ICAO: KGPI
IATA: FCA
Category: Medium
Scheduled Services: Yes

Elevation: 2977 ft
TransAlt. 18000 ft.

Airport Communications:
ATIS:132.625
SALT LAKE CITY CNTR:133.4
CTAF:124.55
GND:121.6
GREAT FALLS RDO:122.5
TWR:124.55
UNICOM:122.95

KGPI Zoom In..

Runways:

(A) RW 02 length 9007 ft width 150 ft
ILS 111.50 / hdg 20

(B) RW 12 length 3504 ft width 75 ft
---- / hdg 121

(C) RW 20 length 9007 ft width 150 ft
---- / hdg 200

(D) RW 30 length 3504 ft width 75 ft
---- / hdg 301

Location; KGPI
Day. 19 / Time. 20.55 Zulu
* Altimeter: 29.98
* Temperature: 31° c. 87.8°f.
* Wind from: 180° Speed 06 kn.
Dewpoint: 07° c.
Visibility: 10 Statute Miles.
Clouds: Clear (automated report).

KGPI 192055Z 18006KT 10SM CLR 31/07 A2998 RMK AO2 SLP136 T03060067 58017


Wind From 180°
Speed 06 kn.

 
 
jpsmedia.com for Web Design worldairports.se 2018   terms of use